www.pogodaiklimat.ru

Погода и климат >> Архив погоды >> Австралия >> Coober Pedy Airport


ПОГОДА в Coober Pedy Airport

  • Прогноз погоды в Coober Pedy Airport
  • Монитор погоды в Coober Pedy Airport
  • Климат города

АРХИВ ПОГОДЫ в Coober Pedy Airport

Время (UTC), дата Ветер
(напр.,м/с)
 
Видим.   Явления Облачность Т
(С)
Тd
(С)
f
(%)
Тe
(С)
Тes
(С)
Комфортность P
(гПа)
Po
(гПа)
Тmin
(С)
Tmax
(С)
R
(мм)
S
(см)
07 17.02 Ю 10 н/о н/о +29.8 +5.8 22 +28 +28 жарко 1011.8 986.4
08 17.02 ЮЗ 8 н/о н/о +29.7 +5.7 22 +28 +28 жарко 1011.8 986.4
09 17.02 Ю 8 н/о н/о +28.7 +5.5 23 +27 +27 жарко 1012.1 986.7
10 17.02 Ю 8 н/о н/о +27.4 +6.2 26 +27 +27 жарко 1012.8 987.4
11 17.02 Ю 9 н/о н/о +26.3 +5.8 27 +26 +26 жарко 1013.6 988.2
12 17.02 Ю 10 н/о н/о +24.9 +7.5 33 +25 +25 комфорт 1014.1 988.7
13 17.02 Ю 10 н/о н/о +23.3 +9.0 40 +25 +25 комфорт 1014.7 989.2
14 17.02 Ю 10 н/о н/о +21.8 +9.7 46 +23 +23 комфорт 1015.1 989.6
15 17.02 Ю 11 н/о н/о +20.2 +10.0 52 +21 +21 комфорт 1015.1 989.6
16 17.02 Ю 9 н/о н/о +19.1 +10.1 56 +19 +19 1015.1 989.6
17 17.02 Ю 9 н/о н/о +18.4 +10.0 58 +18 +18 1014.9 989.4
18 17.02 Ю 9 н/о н/о +17.8 +9.9 60 +17 +17 1015.0 989.5
19 17.02 Ю 8 н/о н/о +17.2 +10.1 63 +16 +16 1015.4 989.9
20 17.02 Ю 8 н/о н/о +16.5 +10.6 68 +15 +15 1015.7 990.2
21 17.02 Ю 7 н/о н/о +16.3 +10.8 70 +15 +15 1016.5 991.0
22 17.02 Ю 8 н/о н/о +17.5 +10.4 63 +16 +16 1017.3 991.8
23 17.02 Ю 11 н/о н/о +19.1 +9.6 54 +19 +19 1017.6 992.1
00 18.02 Ю 10 н/о н/о +19.9 +8.9 49 +20 +20 1018.0 992.5
01 18.02 Ю 10 н/о н/о +21.2 +8.1 43 +22 +22 комфорт 1017.7 992.2
02 18.02 Ю 9 н/о н/о +22.6 +8.0 39 +24 +24 комфорт 1017.3 991.8
03 18.02 Ю 9 н/о н/о +23.9 +6.7 33 +24 +24 комфорт 1016.7 991.2
04 18.02 Ю 7 н/о н/о +25.6 +7.2 31 +26 +26 жарко 1016.0 990.5
05 18.02 Ю 10 н/о н/о +26.8 +5.7 26 +26 +26 жарко 1015.3 989.8
06 18.02 Ю 9 н/о н/о +26.7 +6.2 27 +26 +26 жарко 1014.4 989.0
07 18.02 Ю 9 н/о н/о +26.8 +5.7 26 +26 +26 жарко 1014.2 988.8
08 18.02 Ю 9 н/о н/о +26.5 +4.9 25 +26 +26 жарко 1014.2 988.8
09 18.02 Ю 9 н/о н/о +25.6 +4.1 25 +25 +25 комфорт 1014.3 988.9
10 18.02 Ю 8 н/о н/о +24.2 +4.6 28 +24 +24 комфорт 1015.1 989.6
11 18.02 Ю 10 н/о н/о +23.1 +4.1 29 +23 +23 комфорт 1015.8 990.3
12 18.02 Ю 10 н/о н/о +21.5 +3.2 30 +22 +22 комфорт 1016.8 991.3
13 18.02 Ю 10 н/о н/о +20.1 +4.6 36 +20 +20 1017.2 991.7
14 18.02 Ю 10 н/о н/о +18.8 +4.9 40 +18 +18 1017.8 992.3
15 18.02 Ю 10 н/о н/о +17.4 +5.7 46 +16 +16 1017.8 992.3
16 18.02 Ю 10 н/о н/о +16.4 +6.2 51 +15 +15 1017.6 992.1
17 18.02 Ю 7 н/о н/о +15.4 +6.2 54 +14 +14 1017.4 991.9
18 18.02 Ю 7 н/о н/о +14.7 +6.5 58 +13 +13 1017.5 992.0
19 18.02 Ю 6 н/о н/о +14.2 +7.0 62 +12 +12 1017.3 991.8
20 18.02 Ю 5 н/о н/о +13.5 +7.3 66 +12 +12 1017.9 992.4
21 18.02 Ю 4 н/о н/о +12.9 +7.1 68 +11 +11 1018.8 993.2
22 18.02 Ю 6 н/о н/о +14.4 +7.7 64 +13 +13 1018.9 993.3
23 18.02 Ю 6 н/о н/о +16.1 +6.5 53 +15 +15 1019.2 993.6
00 19.02 Ю 6 н/о н/о +17.1 +4.1 42 +16 +16 1019.4 993.8
01 19.02 Ю 5 н/о н/о +17.9 +3.4 38 +17 +17 1019.3 993.7
02 19.02 ЮЗ 5 н/о н/о +19.4 +4.0 36 +20 +20 1018.8 993.2
03 19.02 Ю 7 н/о н/о +21.8 +3.0 29 +22 +22 комфорт 1017.9 992.4
04 19.02 Ю 4 н/о н/о +21.7 +2.9 29 +22 +22 комфорт 1017.0 991.5
05 19.02 Ю 7 н/о н/о +24.3 +3.0 25 +24 +24 комфорт 1016.1 990.6
06 19.02 ЮЗ 6 н/о н/о +24.0 +2.8 25 +23 +23 комфорт 1015.4 989.9
07 19.02 ЮЗ 5 н/о н/о +25.4 +2.8 23 +24 +24 комфорт 1015.0 989.5
08 19.02 Ю 6 н/о н/о +24.9 +1.1 21 +24 +24 комфорт 1014.7 989.2
09 19.02 Ю 7 н/о н/о +24.8 +1.7 22 +24 +24 комфорт 1014.9 989.4
10 19.02 Ю 6 н/о н/о +23.6 +3.0 26 +23 +23 комфорт 1015.2 989.7
11 19.02 Ю 5 н/о н/о +22.6 +2.7 27 +22 +22 комфорт 1015.8 990.3
12 19.02 Ю 3 н/о н/о +21.2 +2.5 29 +21 +21 комфорт 1016.1 990.6
13 19.02 Ю 4 н/о н/о +20.3 +2.6 31 +21 +21 комфорт 1016.0 990.5
14 19.02 ЮВ 3 н/о н/о +19.1 +2.5 33 +20 +20 1016.1 990.6
15 19.02 ЮВ 3 н/о н/о +18.0 +2.3 35 +18 +18 1015.8 990.3
16 19.02 Ю 5 н/о н/о +17.3 +2.5 37 +17 +17 1015.8 990.3
17 19.02 Ю 5 н/о н/о +17.0 +4.3 43 +16 +16 1015.9 990.4
18 19.02 Ю 5 н/о н/о +16.5 +5.5 48 +16 +16 1015.8 990.3
19 19.02 Ю 6 н/о н/о +15.9 +6.6 54 +15 +15 1015.8 990.3
20 19.02 Ю 5 н/о н/о +15.1 +6.7 57 +14 +14 1016.0 990.5
21 19.02 Ю 5 н/о н/о +14.5 +6.3 58 +13 +13 1016.3 990.8
22 19.02 ЮВ 6 н/о н/о +16.5 +6.3 51 +15 +15 1016.9 991.4
23 19.02 ЮВ 7 н/о н/о +18.9 +7.7 48 +19 +19 1017.1 991.6
00 20.02 В 6 н/о н/о +21.0 +6.9 40 +22 +22 комфорт 1017.5 992.0
01 20.02 В 3 н/о н/о +22.9 +6.2 34 +23 +23 комфорт 1017.2 991.7
02 20.02 В 3 н/о н/о +24.1 +5.5 30 +24 +24 комфорт 1016.6 991.1
03 20.02 Ю 4 н/о н/о +25.8 +4.9 26 +25 +25 комфорт 1015.5 990.0
04 20.02 В 3 н/о н/о +27.3 +4.4 23 +26 +26 жарко 1014.6 989.1
05 20.02 З 3 н/о н/о +27.7 +3.4 21 +26 +26 жарко 1013.5 988.1
06 20.02 ЮЗ 3 н/о н/о +28.2 +3.1 20 +26 +26 жарко 1013.0 987.6
07 20.02 Ю 3 н/о н/о +29.3 +2.5 18 +27 +27 жарко 1012.8 987.4
08 20.02 В 3 н/о н/о +29.0 +1.5 17 +27 +27 жарко 1012.7 987.3
09 20.02 ЮВ 3 н/о н/о +28.5 +1.1 17 +26 +26 жарко 1013.0 987.6
10 20.02 Ю 2 н/о н/о +27.3 +1.7 19 +25 +25 комфорт 1013.5 988.1
11 20.02 ЮВ 4 н/о н/о +26.1 +2.1 21 +25 +25 комфорт 1014.1 988.7
12 20.02 ЮВ 3 н/о н/о +24.3 +1.9 23 +23 +23 комфорт 1014.7 989.2
13 20.02 СВ 4 н/о н/о +23.0 +1.9 25 +22 +22 комфорт 1015.0 989.5
14 20.02 В 3 н/о н/о +21.5 +1.7 27 +21 +21 комфорт 1014.6 989.1
15 20.02 В 3 н/о н/о +21.1 +1.4 27 +21 +21 комфорт 1014.2 988.8
16 20.02 СВ 4 н/о н/о +20.6 +2.4 30 +21 +21 комфорт 1014.1 988.7
17 20.02 СВ 5 н/о н/о +19.2 +2.1 32 +19 +19 1013.8 988.4
18 20.02 СВ 5 н/о н/о +19.1 +2.5 33 +19 +19 1013.5 988.1
19 20.02 СВ 5 н/о н/о +18.5 +2.8 35 +18 +18 1013.5 988.1
20 20.02 СВ 5 н/о н/о +17.6 +2.8 37 +17 +17 1013.9 988.5
21 20.02 СВ 4 н/о н/о +16.7 +2.3 38 +16 +16 1014.7 989.2
22 20.02 СВ 4 н/о н/о +19.9 +2.7 32 +20 +20 1015.7 990.2
23 20.02 СВ 6 н/о н/о +22.8 +3.4 28 +23 +23 комфорт 1016.0 990.5
00 21.02 СВ 8 н/о н/о +25.7 +3.6 24 +25 +25 комфорт 1016.1 990.6
01 21.02 СВ 8 н/о н/о +28.6 +2.7 19 +27 +27 жарко 1015.6 990.1
02 21.02 С 8 н/о н/о +29.6 +1.1 16 +27 +27 жарко 1014.7 989.2
03 21.02 СВ 6 н/о н/о +30.8 -0.8 13 +28 +28 жарко 1013.4 988.0
04 21.02 С 6 н/о н/о +32.5 -3.0 10 +29 +29 жарко 1012.3 986.9
05 21.02 С 6 н/о н/о +33.0 -4.0 9 +29 +29 жарко 1011.0 985.6
06 21.02 С 7 н/о н/о +33.8 -5.0 8 +30 +30 жарко 1009.9 984.6
07 21.02 С 7 н/о н/о +34.5 -4.5 8 +30 +30 жарко 1009.1 983.8
08 21.02 С 7 н/о н/о +34.1 -6.5 7 +30 +30 жарко 1008.9 983.6
09 21.02 С 6 н/о н/о +33.6 -8.9 6 +29 +29 жарко 1009.1 983.8
10 21.02 С 5 н/о н/о +30.6 -7.4 8 +27 +27 жарко 1009.5 984.2
11 21.02 СВ 5 н/о н/о +28.1 -6.3 10 +25 +25 комфорт 1010.0 984.7
12 21.02 СВ 6 н/о н/о +26.4 -6.4 11 +24 +24 комфорт 1010.3 985.0
13 21.02 СВ 5 н/о н/о +24.8 -5.5 13 +23 +23 комфорт 1010.3 985.0
14 21.02 СВ 6 н/о н/о +23.1 -4.9 15 +21 +21 комфорт 1010.1 984.8
15 21.02 СВ 6 н/о н/о +22.1 -4.1 17 +21 +21 комфорт 1009.8 984.5
16 21.02 СВ 5 н/о н/о +20.4 -3.3 20 +20 +20 1009.1 983.8
17 21.02 СВ 6 н/о н/о +20.2 -2.2 22 +20 +20 1008.7 983.4
18 21.02 С 8 н/о н/о +20.4 -2.6 21 +20 +20 1008.1 982.8
19 21.02 С 7 н/о н/о +20.2 -2.8 21 +20 +20 1008.0 982.7
20 21.02 С 8 н/о н/о +21.2 -3.3 19 +20 +20 1008.3 983.0
21 21.02 С 7 н/о н/о +21.3 -3.2 19 +20 +20 1009.2 983.9
22 21.02 З 5 н/о н/о +25.5 -2.1 16 +23 +23 комфорт 1011.7 986.3
23 21.02 ЮЗ 8 н/о н/о +26.3 +3.5 23 +25 +25 комфорт 1012.1 986.7
00 22.02 ЮЗ 9 н/о н/о +25.0 +2.8 24 +27 +27 жарко 1012.5 987.1
01 22.02 Ю 9 н/о н/о +26.9 +12.2 40 +28 +28 жарко 1012.6 987.2
02 22.02 ЮЗ 8 н/о н/о +28.0 +10.2 33 +28 +28 жарко 1012.3 986.9
03 22.02 ЮЗ 7 н/о н/о +30.1 +8.5 26 +29 +29 жарко 1012.0 986.6
04 22.02 ЮЗ 7 н/о н/о +31.8 +6.1 20 +30 +30 жарко 1011.7 986.3
05 22.02 ЮЗ 8 н/о н/о +32.2 +7.8 22 +31 +31 жарко 1011.3 985.9
06 22.02 ЮЗ 7 н/о н/о +32.8 +6.9 20 +31 +31 жарко 1011.0 985.6
07 22.02 Ю 7 н/о н/о +32.5 +6.7 20 +31 +31 жарко 1011.1 985.7
08 22.02 ЮЗ 8 н/о н/о +31.8 +6.8 21 +30 +30 жарко 1011.3 985.9
09 22.02 Ю 7 н/о н/о +31.1 +5.5 20 +29 +29 жарко 1011.7 986.3
10 22.02 Ю 6 н/о н/о +29.7 +5.1 21 +28 +28 жарко 1012.6 987.2
11 22.02 Ю 6 н/о н/о +28.4 +4.0 21 +27 +27 жарко 1013.7 988.3
12 22.02 Ю 5 н/о н/о +26.6 +2.5 21 +25 +25 комфорт 1014.7 989.2
13 22.02 Ю 5 н/о н/о +25.0 +3.0 24 +24 +24 комфорт 1015.3 989.8
14 22.02 Ю 6 н/о н/о +24.3 +2.5 24 +23 +23 комфорт 1015.4 989.9
15 22.02 Ю 9 н/о н/о +23.3 +5.2 31 +23 +23 комфорт 1015.7 990.2
16 22.02 Ю 10 н/о н/о +21.0 +9.3 47 +22 +22 комфорт 1015.8 990.3
17 22.02 Ю 9 н/о н/о +19.6 +9.5 52 +20 +20 1015.8 990.3
18 22.02 Ю 9 н/о н/о +18.6 +7.7 49 +18 +18 1016.0 990.5
19 22.02 Ю 8 н/о н/о +17.7 +8.3 54 +17 +17 1016.6 991.1
20 22.02 Ю 8 н/о н/о +17.1 +8.5 57 +16 +16 1017.4 991.9
21 22.02 Ю 6 н/о н/о +16.5 +9.2 62 +16 +16 1018.5 992.9
22 22.02 Ю 8 н/о н/о +17.6 +10.5 63 +17 +17 1019.2 993.6
23 22.02 Ю 10 н/о н/о +19.2 +9.9 55 +19 +19 1019.5 993.9
00 23.02 Ю 9 н/о н/о +21.5 +9.4 46 +23 +23 комфорт 1020.1 994.5
01 23.02 Ю 8 н/о н/о +23.7 +8.6 38 +24 +24 комфорт 1020.2 994.6
02 23.02 Ю 8 н/о н/о +26.0 +8.0 32 +26 +26 жарко 1019.7 994.1
03 23.02 Ю 7 н/о н/о +26.8 +7.8 30 +27 +27 жарко 1019.3 993.7
04 23.02 Ю 6 н/о н/о +28.2 +7.4 27 +28 +28 жарко 1018.9 993.3
05 23.02 Ю 7 н/о н/о +29.5 +6.8 24 +28 +28 жарко 1018.2 992.7
06 23.02 ЮЗ 7 н/о н/о +29.8 +5.8 22 +28 +28 жарко 1017.8 992.3
07 23.02 Ю 6 н/о н/о +29.6 +5.0 21 +28 +28 жарко 1017.3 991.8
08 23.02 Ю 6 н/о н/о +30.0 +3.9 19 +28 +28 жарко 1017.4 991.9
09 23.02 Ю 6 н/о н/о +29.4 +4.1 20 +28 +28 жарко 1017.8 992.3
10 23.02 Ю 6 н/о н/о +27.9 +4.9 23 +27 +27 жарко 1018.3 992.8
11 23.02 Ю 5 н/о н/о +26.6 +4.4 24 +26 +26 жарко 1019.1 993.5
12 23.02 Ю 5 н/о н/о +25.4 +5.1 27 +25 +25 комфорт 1019.8 994.2
13 23.02 Ю 4 н/о н/о +23.9 +4.8 29 +24 +24 комфорт 1020.1 994.5
14 23.02 ЮВ 4 н/о н/о +22.8 +4.8 31 +23 +23 комфорт 1020.0 994.4
15 23.02 Ю 4 н/о н/о +21.1 +4.2 33 +21 +21 комфорт 1020.0 994.4
16 23.02 Ю 7 н/о н/о +21.1 +8.0 43 +22 +22 комфорт 1020.1 994.5
17 23.02 Ю 8 н/о н/о +19.8 +9.1 50 +20 +20 1020.0 994.4
18 23.02 Ю 8 н/о н/о +18.5 +8.7 53 +18 +18 1020.0 994.4
19 23.02 Ю 8 н/о н/о +17.6 +8.5 55 +17 +17 1020.3 994.7
20 23.02 Ю 7 н/о н/о +16.9 +8.3 57 +16 +16 1020.9 995.3
21 23.02 Ю 6 н/о н/о +16.3 +8.3 59 +15 +15 1021.6 996.0
22 23.02 Ю 8 н/о н/о +17.8 +8.9 56 +17 +17 1022.1 996.5
23 23.02 ЮВ 9 н/о н/о +20.6 +8.9 47 +21 +21 комфорт 1022.6 996.9
00 24.02 Ю 8 н/о н/о +23.4 +9.4 41 +25 +25 комфорт 1022.6 996.9
01 24.02 Ю 7 н/о н/о +25.5 +8.9 35 +26 +26 жарко 1022.5 996.8
02 24.02 Ю 7 н/о н/о +27.7 +7.5 28 +27 +27 жарко 1022.1 996.5
03 24.02 Ю 7 н/о н/о +29.4 +7.3 25 +28 +28 жарко 1021.3 995.7
04 24.02 Ю 6 н/о н/о +30.7 +7.2 23 +29 +29 жарко 1020.3 994.7
05 24.02 Ю 5 н/о н/о +31.1 +5.5 20 +29 +29 жарко 1019.5 993.9

 

Местоположение метеостанции Coober Pedy Airport (Южная Австралия, Австралия): широта -29.03 долгота 134.71 высота над уровнем моря 226 м.

В архиве по умолчанию представлена погода в Coober Pedy Airport за последнюю неделю. Архивные данные за месяц целиком и за предыдущие месяцы, начиная с января 2011 года, Вы можете получить, выбрав интересующий диапазон дат из раскрывающегося списка и нажав кнопку "Ввод!".

Внимание! Время в таблицах - всемирное. Для получения местного времени необходимо прибавить поправку, которая в Coober Pedy Airport равна 9.5 ч.

Смотрите также архив погоды в соседних городах и на ближайших метеорологических станциях:

Погода в Oodnadatta Airport (Южная Австралия, Австралия) (180 км)
Погода в Tarcoola Aero (Южная Австралия, Австралия) (188 км)
Погода в Olympic Dam Aerodrome (Южная Австралия, Австралия) (264 км)
Погода в Woomera Aerodrome (Южная Австралия, Австралия) (311 км)
Погода в Marree Aero (Южная Австралия, Австралия) (332 км)
Погода в Ceduna Amo (Южная Австралия, Австралия) (358 км)
Погода в Pukatja (Южная Австралия, Австралия) (395 км)
Погода в Leigh Creek Airport (Южная Австралия, Австралия) (398 км)
Погода в Minnipa Pirsa (Южная Австралия, Австралия) (427 км)
Погода в Wudinna Aero (Южная Австралия, Австралия) (453 км)

Пояснения к столбцам:

Ветер - указаны скорость ветра в м/с - средняя за 10 мин, порывы в срок и между сроками (в фигурных скобках) и направление, откуда дует ветер: С - северный, СВ - северо-восточный, В - восточный, ЮВ - юго-восточный, Ю - южный, ЮЗ - юго-западный, З - западный, СЗ - северо-западный.
Видимость - горизонтальная дальность видимости в метрах или километрах. При видимости от 1 до 10 км при отсутствии осадков обычно наблюдается дымка, при ухудшении видимости до 1 км и менее - туман. В сухую погоду видимость может ухудшаться дымом, пылью или мглою.
Явления - указаны атмосферные явления, наблюдавшиеся в срок или в последний час перед сроком; фигурными скобками обозначены явления, наблюдавшиеся между сроками (за 1-3 часа до срока); квадратными скобками обозначены град или гололедные отложения с указанием их диаметра в мм.
Облачность - указаны через наклонную черту общая и нижняя облачность в баллах и высота нижней границы облаков в метрах; квадратными скобками обозначены формы облаков: Ci - перистые, Cs - перисто-слоистые, Cc - перисто-кучевые, Ac - высококучевые, As - высокослоистые, Sc - слоисто-кучевые, Ns - слоисто-дождевые, Cu - кучевые, Cb - кучево-дождевые. Подробнее классификацию облаков см. в Атласе облаков (PDF).
T - Температура воздуха - температура, измеренная на высоте 2 м над землей.
Td - Температура точки росы - температура, при понижении до которой содержащийся в воздухе водяной пар достигнет насыщения.
f - Относительная влажность воздуха - влажноcть воздуха, измеренная на высоте 2 м над землей.
Te - Эффективная температура - температура, которую ощущает одетый по сезону человек в тени. Характеристика душности погоды. При расчете учитывается влияние влажности воздуха и скорости ветра на теплоощущения человека.
Tes - Эффективная температура на солнце - температура, которую ощущает человек, с поправкой на солнечный нагрев. Характеристика знойности погоды. Зависит от высоты солнца над горизонтом, облачности и скорости ветра. Ночью, в пасмурную погоду, а также при ветре 12 м/с и более поправка равна нулю.
P - Атмосферное давление - приведенное к уровню моря атмосферное давление.
Po - Атмосферное давление - измеренное на уровне метеостанции атмосферное давление.
Tmin - Минимальная температура - минимум температуры воздуха на высоте 2 м над землей.
Tmax - Максимальная температура - максимум температуры воздуха на высоте 2 м над землей.
R - Количество осадков - Количество выпавших осадков, мм. При наведении курсора мыши на число - период времени, за который выпало указанное количество осадков.
S - Снежный покров - Высота снежного покрова, см. При наведении курсора мыши на число - состояние снежного покрова и степень покрытия местности в баллах.